Voltar ao catálogo

DELTA 1 DEB

AtivoLEO
NORAD 7061·DEBRIS·🇺🇸 United States

Lançado Nov 6, 1973 de Vandenberg Space Force Base

Loading…

Próximas Passagens (próximas 24 horas)

TLE

AtualizadoSource: Space-Track

Época: Sep 14, 2026, 04:17 UTC

1 07061U 73086BD  26257.17874426  .00000026  00000-0  43875-3 0  9997
2 07061 102.4530 153.8491 0138155 178.2039 338.3704 12.56191745418928

Acompanhe DELTA 1 DEB em tempo real com AllMySat

Download on the App Store